[[{"header":{"parameterUnit":"m.s-1","parameterCategory":1,"la1":30.2991,"la2":30.254,"lo1":-89.0895,"lo2":-89.0444,"dy":0.0017,"dx":0.0017,"nx":28,"ny":28,"refTime":"2024-04-03T09:00:00:Z","depth":0,"parameterNumber":2,"parameterNumberName":"U-component_of_WINDS"},"data":[0,0,0,0,0,0,0,0,0,0,0,0,0,0,0,0,0,0,0,0,0,0,0,0,0,0,0,0,0,0,0,0,0,0,0,0,0,0,0,0,0,0,0,0,0,0,0,0,0,0,0,0,0,0,0,0,0,0,5.606,5.6063,0,5.63,5.6303,5.6306,5.6257,5.6252,5.6248,5.6244,5.6499,5.651,5.652,0,0,0,0,0,0,0,0,0,0,0,0,0,5.5567,5.5576,5.606,5.6063,5.6066,5.63,5.6303,5.6307,5.6258,5.6252,5.6247,5.6242,5.6495,5.6508,5.6521,0,0,0,0,0,0,0,0,0,0,0,0,0,5.5792,5.5579,5.6059,5.6069,5.6073,5.6299,5.6303,5.6307,5.6259,5.6252,5.6245,5.6239,5.6491,5.6507,5.6523,5.6757,0,0,5.6573,5.658,0,0,0,0,0,0,0,0,5.5779,5.581,5.6065,5.6069,5.6073,5.6242,5.6223,5.6459,5.626,5.6188,5.6244,5.6236,5.6419,5.6441,5.6501,5.6769,5.678,5.6575,5.6585,5.6592,5.6596,0,0,0,0,0,0,0,5.5764,5.5799,5.6155,5.6069,5.6074,5.6065,5.6089,5.6267,5.6339,5.6194,5.6191,5.622,5.642,5.6485,5.6507,5.6784,5.6574,5.6589,5.6599,5.6605,5.7259,5.7266,0,0,0,0,0,0,5.5743,5.5787,5.6148,5.6162,5.5906,5.6079,5.6106,5.6194,5.6336,5.6351,5.6225,5.6217,5.6461,5.6488,5.6516,5.6801,5.6592,5.6607,5.6616,5.7251,5.726,5.7268,0,0,0,0,0,0,5.5733,5.5776,5.6138,5.5974,5.6019,5.6094,5.6194,5.6203,5.6268,5.636,5.6373,5.6278,5.6457,5.6493,5.6697,5.6809,5.6614,5.6629,5.7242,5.7254,5.7264,5.7372,0,0,0,0,0,0,5.5719,5.5772,5.586,5.5976,5.6028,5.6314,5.62,5.6212,5.6295,5.6286,5.6413,5.6428,5.6454,5.6673,5.6714,5.6828,5.6642,5.7233,5.7247,5.7261,5.7359,5.7385,5.7408,0,0,0,0,0,5.5701,5.5882,5.5865,5.5908,5.6139,5.632,5.635,5.6374,5.6304,5.6395,5.6454,5.6424,5.6789,5.6695,5.674,5.6861,5.7226,5.7243,5.726,5.7348,5.738,5.7408,0,0,0,0,0,0,5.5781,5.5898,5.5879,5.6103,5.6201,5.6311,5.6426,5.6408,5.6531,5.6517,5.6545,5.6574,5.6783,5.6842,5.6734,5.7096,5.6998,5.7025,5.705,5.7081,5.7105,5.7088,5.6656,0,0,0,0,0,5.5823,5.5958,5.6054,5.6242,5.6292,5.635,5.643,5.644,5.6545,5.6587,5.6661,5.6766,5.6905,5.6996,5.7129,5.7366,5.7395,5.7472,5.7496,5.7516,5.754,5.7672,5.7708,5.7324,5.7324,5.7324,0,0,5.5915,5.5995,5.6079,5.626,5.6337,5.6479,5.6386,5.6539,5.6646,5.6611,5.6809,5.6867,5.6986,5.7209,5.7311,5.7265,5.7652,5.7538,5.7553,5.7566,5.7693,5.773,5.7762,5.7335,5.7333,5.7332,0,0,5.6153,5.6226,5.6392,5.6471,5.6588,5.6626,5.6666,5.6779,5.6815,5.7013,5.699,5.7118,5.7356,5.7442,5.7518,5.7789,5.7767,5.7831,5.7962,5.809,5.812,5.8147,5.8247,5.8281,5.7854,5.7854,5.7855,0,5.6253,5.6462,5.648,5.6636,5.6717,5.6689,5.6858,5.6935,5.7092,5.715,5.7095,5.7393,5.7471,5.7714,5.778,5.7841,5.789,5.7818,5.8114,5.8141,5.8167,5.8262,5.8299,5.7862,5.7861,5.786,5.7859,0,5.658,5.6726,5.6845,5.6994,5.7089,5.7251,5.7296,5.739,5.7391,5.7436,5.7639,5.7732,5.7883,5.7941,5.7945,5.8186,5.8154,5.8106,5.801,5.821,5.83,5.8336,5.7872,5.7869,5.7867,5.7865,0,0,5.6877,5.7032,5.7076,5.7144,5.7271,5.7386,5.7547,5.7692,5.7774,5.7882,5.8021,5.8222,5.8179,5.8264,5.8278,5.839,5.8602,5.8329,5.8332,5.8379,5.8876,5.8912,5.8954,5.8587,5.8594,5.8599,5.8866,0,5.713,5.7411,5.7432,5.7687,5.7824,5.7799,5.794,5.8035,5.8081,5.8205,5.8257,5.84,5.8331,5.8382,5.8492,5.8552,5.8702,5.8533,5.8719,5.8725,5.8692,5.9,5.904,5.9287,5.8901,5.8907,5.8912,0,5.7462,5.7577,5.7846,5.7954,5.8012,5.8139,5.8274,5.8392,5.85,5.8526,5.862,5.8618,5.8788,5.8682,5.8917,5.8802,5.8879,5.892,5.8931,5.8951,5.8832,5.9032,5.9367,5.9405,5.8967,5.8962,5.8958,0,5.7655,5.7878,5.8067,5.8126,5.8257,5.8346,5.8405,5.8506,5.8593,5.8712,5.8769,5.8907,5.8983,5.9092,5.9128,5.9048,5.9363,5.926,5.9392,5.9391,5.9462,5.9457,5.9816,5.9507,5.9507,5.9506,5.9505,0,5.7936,5.8102,5.8156,5.8273,5.8459,5.8482,5.8666,5.8721,5.8811,5.894,5.8927,5.905,5.9089,5.9219,5.9249,5.9441,5.9475,5.9503,5.9509,5.9506,5.9502,5.9558,5.9543,5.9516,5.9514,5.9512,5.951,0,5.8184,5.8226,5.8432,5.8538,5.8568,5.8701,5.8793,5.8908,5.895,5.9114,5.9154,5.9223,5.9375,5.9421,5.9606,5.9626,5.9851,5.9841,5.9814,5.9815,5.9945,5.9933,6.0355,6.0412,6.0063,6.0066,6.0069,0,5.8361,5.8488,5.8607,5.8691,5.8753,5.8889,5.8976,5.9004,5.9096,5.9229,5.9328,5.9478,5.9599,5.9845,5.9913,6.0054,6.0049,6.0187,6.0071,6.0063,6.0054,6.0047,6.0061,6.021,6.0214,6.0217,6.0219,0,5.8673,5.8688,5.8812,5.8945,5.9048,5.9155,5.9258,5.9328,5.9371,5.9476,5.9629,5.9723,5.991,6.0061,6.0204,6.0268,6.0253,6.0254,6.0293,6.0292,6.0272,6.0287,5.9876,6.0246,6.0243,6.0241,6.024,6.0238,5.8894,5.9005,5.9106,5.9246,5.9325,5.9421,5.9534,5.9589,5.9717,5.987,5.9879,6.0046,6.0153,6.0343,6.0415,6.0548,6.0509,6.0564,6.0578,6.0592,6.0604,6.0248,6.0574,6.0574,6.0573,6.0572,6.0572,0,5.9207,5.927,5.9398,5.954,5.9651,5.9622,5.9734,5.9829,5.9976,6.0075,6.0193,6.0372,6.0517,6.0596,6.0741,6.0833,6.083,6.0871,6.0866,6.0882,6.063,6.0583,6.0871,6.0871,6.0871,6.0871,6.0871,6.0871,5.9383,5.9571,5.9597,5.9826,5.9888,6.005,6.0117,6.0206,6.0285,6.0483,6.0603,6.0652,6.0744,6.0896,6.1029,6.1049,6.1104,6.115,6.1166,6.093,6.0899,6.087,6.0826,6.1161,6.1162,6.1407,6.1409,6.1411]},{"header":{"parameterUnit":"m.s-1","parameterCategory":1,"la1":30.2991,"la2":30.254,"lo1":-89.0895,"lo2":-89.0444,"dy":0.0017,"dx":0.0017,"nx":28,"ny":28,"refTime":"2024-04-03T09:00:00:Z","depth":0,"parameterNumber":3,"parameterNumberName":"V-component_of_WINDS"},"data":[0,0,0,0,0,0,0,0,0,0,0,0,0,0,0,0,0,0,0,0,0,0,0,0,0,0,0,0,0,0,0,0,0,0,0,0,0,0,0,0,0,0,0,0,0,0,0,0,0,0,0,0,0,0,0,0,0,0,-0.6144,-0.6145,0,-0.6202,-0.6203,-0.6204,-0.6231,-0.6231,-0.6231,-0.6231,-0.6292,-0.6294,-0.6296,0,0,0,0,0,0,0,0,0,0,0,0,0,-0.6059,-0.6061,-0.6144,-0.6145,-0.6146,-0.6202,-0.6203,-0.6204,-0.6231,-0.6231,-0.6231,-0.6231,-0.6292,-0.6294,-0.6296,0,0,0,0,0,0,0,0,0,0,0,0,0,-0.6105,-0.6061,-0.6144,-0.6166,-0.6169,-0.6202,-0.6203,-0.6204,-0.6231,-0.6231,-0.6231,-0.6231,-0.6291,-0.6294,-0.6296,-0.6313,0,0,-0.6304,-0.6305,0,0,0,0,0,0,0,0,-0.6102,-0.6108,-0.6162,-0.6165,-0.6168,-0.6209,-0.6196,-0.6241,-0.6231,-0.6207,-0.6231,-0.6231,-0.6265,-0.627,-0.6281,-0.6316,-0.6318,-0.6304,-0.6306,-0.6307,-0.6307,0,0,0,0,0,0,0,-0.6099,-0.6105,-0.6167,-0.6163,-0.6166,-0.6174,-0.618,-0.6204,-0.6236,-0.621,-0.6212,-0.6218,-0.6266,-0.6278,-0.6282,-0.6319,-0.6304,-0.6306,-0.6308,-0.6309,-0.6371,-0.6371,0,0,0,0,0,0,-0.6092,-0.6103,-0.6166,-0.6169,-0.6134,-0.6175,-0.6182,-0.6196,-0.6236,-0.6242,-0.6218,-0.6219,-0.6274,-0.6279,-0.6285,-0.6307,-0.6307,-0.6309,-0.631,-0.6371,-0.6371,-0.6371,0,0,0,0,0,0,-0.609,-0.6097,-0.6163,-0.6136,-0.6145,-0.6177,-0.6192,-0.6197,-0.6209,-0.6242,-0.6248,-0.6224,-0.6274,-0.6281,-0.6305,-0.6309,-0.631,-0.6312,-0.6371,-0.6371,-0.6371,-0.6351,0,0,0,0,0,0,-0.6087,-0.6096,-0.6103,-0.6136,-0.6147,-0.6182,-0.6192,-0.6198,-0.6213,-0.6215,-0.6249,-0.6255,-0.6275,-0.6302,-0.6308,-0.6313,-0.6314,-0.637,-0.6371,-0.6371,-0.6352,-0.6351,-0.635,0,0,0,0,0,-0.6084,-0.6095,-0.6103,-0.611,-0.6155,-0.6183,-0.6189,-0.621,-0.6213,-0.622,-0.6241,-0.6254,-0.6308,-0.6304,-0.6311,-0.6317,-0.637,-0.6371,-0.6371,-0.6352,-0.6351,-0.635,0,0,0,0,0,0,-0.6062,-0.61,-0.6109,-0.6131,-0.6153,-0.6187,-0.6196,-0.6208,-0.6231,-0.6232,-0.6259,-0.6266,-0.6288,-0.6305,-0.63,-0.6335,-0.634,-0.6342,-0.6323,-0.6322,-0.6322,-0.6317,-0.6316,0,0,0,0,0,-0.6059,-0.6078,-0.611,-0.6127,-0.6137,-0.6165,-0.6178,-0.6192,-0.6217,-0.6227,-0.625,-0.6274,-0.6296,-0.631,-0.6332,-0.6354,-0.6362,-0.6362,-0.6361,-0.636,-0.6361,-0.6374,-0.6374,-0.6372,-0.6372,-0.6372,0,0,-0.6055,-0.6078,-0.6088,-0.6123,-0.6142,-0.6161,-0.6173,-0.6193,-0.6207,-0.623,-0.6254,-0.6272,-0.63,-0.6323,-0.6334,-0.6338,-0.6363,-0.636,-0.6359,-0.6361,-0.6374,-0.6375,-0.6375,-0.6372,-0.6372,-0.6372,0,0,-0.6056,-0.6075,-0.6091,-0.6109,-0.6138,-0.6156,-0.6159,-0.6191,-0.6204,-0.6228,-0.6246,-0.6264,-0.6302,-0.6321,-0.6336,-0.6344,-0.6357,-0.6351,-0.6346,-0.6358,-0.6359,-0.6359,-0.6362,-0.6363,-0.6352,-0.6352,-0.6352,0,-0.6047,-0.6076,-0.6097,-0.6116,-0.6131,-0.6152,-0.6168,-0.6185,-0.622,-0.623,-0.6233,-0.6281,-0.6301,-0.6329,-0.6331,-0.6342,-0.6348,-0.6347,-0.6357,-0.6357,-0.6358,-0.6361,-0.6362,-0.6351,-0.6351,-0.6351,-0.6351,0,-0.6063,-0.6083,-0.6092,-0.6124,-0.614,-0.6157,-0.6182,-0.6196,-0.6209,-0.6227,-0.6252,-0.6277,-0.6305,-0.6313,-0.6326,-0.6342,-0.6344,-0.6351,-0.6357,-0.6357,-0.636,-0.6362,-0.635,-0.635,-0.635,-0.635,0,0,-0.6052,-0.6095,-0.6099,-0.6113,-0.6146,-0.6162,-0.618,-0.6206,-0.6218,-0.6241,-0.6257,-0.6288,-0.6296,-0.6312,-0.6328,-0.6339,-0.6344,-0.6345,-0.6346,-0.6344,-0.6364,-0.6358,-0.6359,-0.6352,-0.6352,-0.6353,-0.6361,0,-0.6058,-0.6092,-0.6112,-0.6137,-0.6156,-0.6175,-0.6191,-0.6213,-0.623,-0.6249,-0.6269,-0.629,-0.6298,-0.6308,-0.6319,-0.6341,-0.6348,-0.634,-0.6368,-0.6369,-0.6361,-0.6361,-0.6355,-0.6362,-0.6363,-0.6363,-0.6363,0,-0.607,-0.6091,-0.6118,-0.6148,-0.6157,-0.6171,-0.6197,-0.6214,-0.624,-0.6251,-0.627,-0.6285,-0.6306,-0.631,-0.6339,-0.6333,-0.6346,-0.6358,-0.6359,-0.6363,-0.6366,-0.6365,-0.6364,-0.6365,-0.6366,-0.6365,-0.6365,0,-0.606,-0.6095,-0.6116,-0.6128,-0.6163,-0.6173,-0.6188,-0.6214,-0.6228,-0.6251,-0.626,-0.6285,-0.6299,-0.6319,-0.6341,-0.6341,-0.6368,-0.6374,-0.6379,-0.6379,-0.6384,-0.6384,-0.6386,-0.6392,-0.6392,-0.6392,-0.6392,0,-0.6064,-0.608,-0.6112,-0.6124,-0.6143,-0.6166,-0.6184,-0.6201,-0.6223,-0.624,-0.6259,-0.6274,-0.6302,-0.6322,-0.6339,-0.6361,-0.6367,-0.6378,-0.6382,-0.6376,-0.6375,-0.6385,-0.6386,-0.6392,-0.6392,-0.6392,-0.6392,0,-0.6056,-0.6078,-0.6102,-0.6133,-0.6141,-0.6153,-0.6181,-0.6194,-0.6212,-0.6233,-0.6239,-0.6268,-0.6291,-0.6315,-0.6347,-0.6359,-0.6381,-0.6387,-0.6372,-0.6374,-0.6379,-0.6378,-0.6388,-0.6391,-0.6394,-0.6394,-0.6394,0,-0.6058,-0.607,-0.6103,-0.6115,-0.6129,-0.6149,-0.6163,-0.6187,-0.6201,-0.6231,-0.6241,-0.6266,-0.6287,-0.6324,-0.6348,-0.6372,-0.6379,-0.6381,-0.6383,-0.6377,-0.638,-0.6379,-0.638,-0.6381,-0.638,-0.638,-0.638,0,-0.6059,-0.6069,-0.6088,-0.6112,-0.6129,-0.6149,-0.6169,-0.6178,-0.6206,-0.6221,-0.6245,-0.6261,-0.6294,-0.6318,-0.6346,-0.6363,-0.6376,-0.6379,-0.6382,-0.6376,-0.6367,-0.6372,-0.637,-0.6379,-0.6379,-0.6379,-0.6379,-0.6379,-0.6056,-0.6068,-0.6092,-0.6113,-0.6131,-0.615,-0.6164,-0.6183,-0.6203,-0.6231,-0.6243,-0.6267,-0.6293,-0.6331,-0.6347,-0.6367,-0.6371,-0.6374,-0.6375,-0.6376,-0.6375,-0.6363,-0.6372,-0.6372,-0.6372,-0.6372,-0.6372,0,-0.6058,-0.6074,-0.6093,-0.6121,-0.6138,-0.6148,-0.6172,-0.6186,-0.6206,-0.6228,-0.6248,-0.6276,-0.63,-0.6325,-0.6351,-0.6361,-0.6368,-0.6367,-0.6367,-0.6371,-0.637,-0.6365,-0.6361,-0.6361,-0.6361,-0.6361,-0.6361,-0.6361,-0.6061,-0.6081,-0.6094,-0.6124,-0.614,-0.6163,-0.6176,-0.6193,-0.6211,-0.624,-0.626,-0.6276,-0.63,-0.6327,-0.635,-0.6357,-0.6365,-0.6363,-0.6371,-0.637,-0.6371,-0.6372,-0.6367,-0.6364,-0.6364,-0.6371,-0.6371,-0.6371]}]]